{"data":{"norad_id":59907,"epoch":"2026-05-24T23:54:47.168928Z","epoch_age_seconds":71802,"freshness":"FRESH","line1":"1 59907U 24100Y   26144.99637927  .00136902  00000+0  23360-2 0  9992","line2":"2 59907  42.9944  11.7984 0021640 252.8332 107.0158 15.49875185113305","mean_motion":15.49875185,"eccentricity":0.002164,"inclination_deg":42.9944,"raan_deg":11.7984,"arg_perigee_deg":252.8332,"mean_anomaly_deg":107.0158,"bstar":0.002336,"rev_number":11330,"period_min":92.910707516102,"perigee_km":402.38599514222,"apogee_km":431.79574135601,"semimajor_km":6795.2278682491,"source":"CELESTRAK","updated_at":"2026-05-25T13:38:19.121027Z"}}